Flag for Switzerland Weather past 2 weeks in Altdorf, Uri, Switzerland

Now
60 °F

Refreshingly cool.


Feels Like: 60 °F
Forecast: 44 / 56 °F
Wind: 5 mph from West

Location: Altdorf


UV Index: 0 (Low)

Visibility: N/A


Pressure: 29.59 "Hg

Humidity: 44%

Dew point: 38 °F

Location of AltdorfLocation

Historic Weather in Altdorf

°F

Altdorf temperature yesterday

Maximum temperature yesterday: 53 °F (at 2:00 PM)
Minimum temperature yesterday: 38 °F (at 7:00 AM)
Average temperature yesterday: 44 °F

Past Weeks' High & Low Weather Summary

 TemperatureHumidityPressure
High67 °F (Apr 11, 5:00 PM)96% (Apr 6, 7:00 AM)30.34 "Hg (Apr 6, 7:00 AM)
Low31 °F (Apr 17, 7:00 AM)37% (Apr 15, 3:00 PM)29.59 "Hg (Apr 20, 6:00 PM)
Average51 °F68%30.07 "Hg
* Reported Apr 5 6:00 PM — Apr 20 6:00 PM, Altdorf, Weather by CustomWeather, © 2014

Note: Actual official high and low records may vary slightly from our data, if they occured in-between our weather recording intervals... More about our weather records

Advertising

Historic Weather Conditions — Data for Previous 24 hours

 ConditionsComfort  
Time TempWeatherWind HumidityBarometerVisibility
6:00 PM
Apr 20
60 °FRefreshingly cool.5 mph44%29.59 "HgN/A
5:00 PM61 °FPartly sunny.6 mph42%29.60 "Hg14 mi
4:00 PM63 °FMild.9 mph44%29.60 "HgN/A
3:00 PM62 °FRefreshingly cool.9 mph42%29.61 "HgN/A
2:00 PM58 °FPassing clouds.6 mph55%29.64 "Hg16 mi
1:00 PM56 °FCool.6 mph68%29.67 "HgN/A
12:00 PM53 °FCool.7 mph67%29.70 "HgN/A
11:00 AM52 °FPassing clouds.2 mph65%29.72 "Hg16 mi
10:00 AM47 °FCool.2 mph72%29.75 "HgN/A
9:00 AM45 °FCool.2 mph80%29.76 "HgN/A
8:00 AM44 °FQuite cool.No wind82%29.76 "HgN/A
7:00 AM42 °FQuite cool.1 mph91%29.76 "HgN/A
6:00 AM42 °FQuite cool.1 mph92%29.76 "HgN/A
5:00 AM41 °FClear.1 mph89%29.77 "Hg10 mi
4:00 AM38 °FChilly.3 mph92%29.79 "HgN/A
3:00 AM36 °FChilly.No wind94%29.79 "HgN/A
2:00 AM38 °FClear.2 mph93%29.78 "Hg12 mi
1:00 AM39 °FChilly.1 mph91%29.78 "HgN/A
12:00 AM41 °FQuite cool.1 mph87%29.78 "HgN/A
11:00 PM
Apr 19
44 °FClear.2 mph84%29.79 "Hg12 mi
10:00 PM46 °FCool.1 mph79%29.80 "HgN/A
9:00 PM47 °FCool.5 mph74%29.80 "HgN/A
8:00 PM47 °FCool.6 mph68%29.78 "HgN/A
7:00 PM49 °FCool.6 mph64%29.77 "HgN/A
Weather by CustomWeather, © 2014

See weather overview